Aeroporto :
LOGIN :

Iscrizione | Disclaimer

   EN    FR    IT 

 










Sommario :    VFR   VFR Marginale   IFR   IFR Intensivo   IFR Molto Intensivo
Visibilità : 
Base nubi : 
>= 8 km
>= 3000ft
5 / 8 km
1000 / 3000 ft
1500m / 5 km
500 / 1000 ft
800 / 1500m
200 / 500 ft
< 800m
< 200 ft
Simboli :   Temporali  Nebbia  Neve Forte  Precipitazioni Forti  Vento > 20 kt
SIGMETs :   Varie  Temporali  Ghiacco  Turbolenza  Onda orograficha  Ceneri Vulcaniche







- Altitudine del aeroporto : 2220 ft


LOXZ - Zeltweg AB

ULTIMO METAR :
  • 181550Z VRB03KT 40KM FEW060TCU SCT070SC BKN090AC 25/14 Q1020

METARs OBSOLETI :
  • 181450Z 11007KT 40KM FEW060TCU SCT070CU 26/11 Q1020 NOSIG
  • 181420Z 08005KT 40KM FEW060TCU SCT070CU 28/11 Q1020 NOSIG
  • 181350Z 11004KT 40KM FEW060CU BKN070SC 27/10 Q1020 NOSIG

TAF TAF LOXZ
Valido dal 18 a 12 ore il 18 a 21 ore UTC


181115Z 1812/1821 VRB03KT 9999 FEW080
TEMPO 1812/1818 14008KT FEW060CB SCT070
Nessun NOTAM noto per questo aeroporto.



MetMap, La meteo Aeronautica in un colpo d'occhio ! - Copyright ORBIFLY Dicembre 2007 - Disclaimer

ORBIFLY MET'MAP TEAM :

Programmazione e sviluppo : Alexandra Zaïnal
Concezione e sviluppo : Baudouin d'Aumeries
Co-Programmazione e sviluppo : Marc-Olivier Méhu
Supporto tecnico e logistico : Manuel Goepfert
Aiuto per la traduzione : Arnaldo La Scala

Contatto : metmap@orbifly.com




FONTI E CREDITI :

   NOAA